User: anonymous   Login
Location: Ch�teau-Arnoux
(44.0814°N, 6.0027°E)
Time: 23:18:12
(UTC+00:00)
Language:

Cosmos 1484 Rocket - Orbit

View from above orbital plane
View from above orbital plane
View from above satellite
View from above satellite

Ground track
Ground track

The orbit data is extracted from the following two-line orbital elements,

1 14208U 83075B   20023.89222667  .00000152  00000-0  12658-4 0  9991
2 14208  97.3827  12.4230 0040452  90.0810 270.5056 15.11041405991048
Epoch (UTC): 23 January 2020 21:24:48
Eccentricity: 0.0040452
inclination: 97.3827°
perigee height: 505 km
apogee height: 561 km
right ascension of ascending node: 12.4230°
argument of perigee: 90.0810°
revolutions per day: 15.11041405
mean anomaly at epoch: 270.5056°
orbit number at epoch: 99104

The dashed part of the orbit path shows where the satellite is in the earth's shadow,  

DLR